sat.trackr.live / text

‹ back to catalog

STARLINK-31957

NORAD 59926 · 2024-106E

PAYLOAD ACTIVE UNKNOWN

§ Identity

Operator
Country
US
Launch date
2024-06-01
Launch site
AFETR
Launch vehicle
Mass (kg)
RCS (m²)

Purposes: comms

External: N2YO · Heavens-Above · Gunter

§ Orbital elements

Epoch: 2026-05-25T00:54:58.256064Z

Period
94.27 min
Inclination
42.9997°
Eccentricity
0.0001178
Mean motion
15.27562672 rev/d
Perigee alt
482.3 km
Apogee alt
483.9 km
Semi-major
6,861.2 km
B*
-4.1184e-5
RAAN
260.9820°
Arg perigee
288.5460°
Mean anomaly
71.5264°
Rev number
11,225

§ Raw data

STARLINK-319571 59926U 24106E   26145.03817426 -.00001394  00000+0 -41184-4 0  99932 59926  42.9997 260.9820 0001178 288.5460  71.5264 15.27562672112259

JSON: /api/v1/satellites/59926 · /tle

For live sub-satellite position, see the globe view (requires WebGL).

§ Visibility from observer

Set your observer location to see the next 7 days of passes ≥ 10°. The values pass through the URL so the page stays shareable.

No JS? Fill the form by hand. The geolocation button needs JavaScript.